Time,TemperatureF,DewpointF,PressureIn,WindDirection,WindDirectionDegrees,WindSpeedMPH,WindSpeedGustMPH,Humidity,HourlyPrecipIn,Conditions,Clouds,dailyrainin,SoftwareType,DateUTC
2013-06-04 00:00:00,39.0,-99.9,-100.00,ESE,105,48.0,-999.0,-999,-99.99,,,-99.99,,2013-06-04 06:00:00,
2013-06-04 00:52:00,39.0,-99.9,-100.00,ESE,105,48.0,-999.0,-999,-99.99,,,-99.99,,2013-06-04 06:52:00,
2013-06-04 01:00:00,37.0,-99.9,-100.00,North,-999,-999.0,-999.0,-999,-99.99,,,-99.99,,2013-06-04 07:00:00,
2013-06-04 01:52:00,37.0,-99.9,-100.00,North,-999,-999.0,-999.0,-999,-99.99,,,-99.99,,2013-06-04 07:52:00,
2013-06-04 02:00:00,36.0,-99.9,-100.00,South,173,62.0,-999.0,-999,-99.99,,,0.00,,2013-06-04 08:00:00,
2013-06-04 02:52:00,36.0,-99.9,-100.00,South,173,62.0,-999.0,-999,-99.99,,,0.00,,2013-06-04 08:52:00,
2013-06-04 03:00:00,37.0,-99.9,-100.00,SSW,212,93.0,-999.0,-999,-99.99,,,-99.99,,2013-06-04 09:00:00,
2013-06-04 03:53:00,37.0,-99.9,-100.00,SSW,212,93.0,-999.0,-999,-99.99,,,-99.99,,2013-06-04 09:53:00,
2013-06-04 04:00:00,35.0,-99.9,-100.00,WNW,294,102.0,-999.0,-999,-99.99,,,-99.99,,2013-06-04 10:00:00,
2013-06-04 04:53:00,35.0,-99.9,-100.00,WNW,294,102.0,-999.0,-999,-99.99,,,-99.99,,2013-06-04 10:53:00,
2013-06-04 05:00:00,32.0,-99.9,-100.00,NW,315,110.0,-999.0,-999,-99.99,,,-99.99,,2013-06-04 11:00:00,
2013-06-04 05:52:00,32.0,-99.9,-100.00,NW,315,110.0,-999.0,-999,-99.99,,,-99.99,,2013-06-04 11:52:00,
2013-06-04 06:00:00,32.0,-99.9,-100.00,NW,322,111.0,-999.0,-999,-99.99,,,-99.99,,2013-06-04 12:00:00,
2013-06-04 06:53:00,32.0,-99.9,-100.00,NW,322,111.0,-999.0,-999,-99.99,,,-99.99,,2013-06-04 12:53:00,
2013-06-04 07:00:00,47.0,-99.9,-100.00,South,188,99.0,-999.0,-999,-99.99,,,-99.99,,2013-06-04 13:00:00,
2013-06-04 07:52:00,47.0,-99.9,-100.00,South,188,99.0,-999.0,-999,-99.99,,,-99.99,,2013-06-04 13:52:00,
2013-06-04 08:00:00,49.0,-99.9,-100.00,ESE,117,46.0,-999.0,-999,-99.99,,,-99.99,,2013-06-04 14:00:00,
2013-06-04 08:52:00,49.0,-99.9,-100.00,ESE,117,46.0,-999.0,-999,-99.99,,,-99.99,,2013-06-04 14:52:00,
2013-06-04 09:00:00,51.0,-99.9,-100.00,SSE,164,72.0,-999.0,-999,-99.99,,,0.00,,2013-06-04 15:00:00,
2013-06-04 09:53:00,51.0,-99.9,-100.00,SSE,164,72.0,-999.0,-999,-99.99,,,0.00,,2013-06-04 15:53:00,
2013-06-04 10:00:00,51.0,-99.9,-100.00,SSW,196,73.0,-999.0,-999,-99.99,,,-99.99,,2013-06-04 16:00:00,
2013-06-04 10:53:00,51.0,-99.9,-100.00,SSW,196,73.0,-999.0,-999,-99.99,,,-99.99,,2013-06-04 16:53:00,
2013-06-04 11:00:00,54.0,-99.9,-100.00,SSE,151,63.0,-999.0,-999,-99.99,,,-99.99,,2013-06-04 17:00:00,
2013-06-04 11:52:00,54.0,-99.9,-100.00,SSE,151,63.0,-999.0,-999,-99.99,,,-99.99,,2013-06-04 17:52:00,
2013-06-04 12:00:00,59.0,-99.9,-100.00,SE,129,56.0,-999.0,-999,-99.99,,,-99.99,,2013-06-04 18:00:00,
2013-06-04 12:53:00,59.0,-99.9,-100.00,SE,129,56.0,-999.0,-999,-99.99,,,-99.99,,2013-06-04 18:53:00,
2013-06-04 13:00:00,61.0,-99.9,-100.00,East,90,35.0,-999.0,-999,-99.99,,,-99.99,,2013-06-04 19:00:00,
2013-06-04 13:52:00,61.0,-99.9,-100.00,East,90,35.0,-999.0,-999,-99.99,,,-99.99,,2013-06-04 19:52:00,
2013-06-04 14:00:00,60.0,-99.9,-100.00,North,-999,-999.0,-999.0,-999,-99.99,,,-99.99,,2013-06-04 20:00:00,
2013-06-04 14:53:00,60.0,-99.9,-100.00,North,-999,-999.0,-999.0,-999,-99.99,,,-99.99,,2013-06-04 20:53:00,
2013-06-04 15:00:00,55.0,-99.9,-100.00,South,174,65.0,-999.0,-999,-99.99,,,-99.99,,2013-06-04 21:00:00,
2013-06-04 15:53:00,55.0,-99.9,-100.00,South,174,65.0,-999.0,-999,-99.99,,,-99.99,,2013-06-04 21:53:00,
2013-06-04 16:00:00,50.0,-99.9,-100.00,SSW,202,76.0,-999.0,-999,-99.99,,,-99.99,,2013-06-04 22:00:00,
2013-06-04 16:52:00,50.0,-99.9,-100.00,SSW,202,76.0,-999.0,-999,-99.99,,,-99.99,,2013-06-04 22:52:00,
2013-06-04 17:00:00,48.0,-99.9,-100.00,WSW,237,82.0,-999.0,-999,-99.99,,,-99.99,,2013-06-04 23:00:00,
2013-06-04 17:52:00,48.0,-99.9,-100.00,WSW,237,82.0,-999.0,-999,-99.99,,,-99.99,,2013-06-04 23:52:00,
2013-06-04 18:00:00,46.0,-99.9,-100.00,WSW,248,87.0,-999.0,-999,-99.99,,,-99.99,,2013-06-05 00:00:00,
2013-06-04 18:42:00,46.0,-99.9,-100.00,WSW,248,87.0,-999.0,-999,-99.99,,,-99.99,,2013-06-05 00:42:00,
2013-06-04 18:52:00,46.0,-99.9,-100.00,WSW,248,87.0,-999.0,-999,-99.99,,,-99.99,,2013-06-05 00:52:00,
2013-06-04 19:00:00,42.0,-99.9,-100.00,WSW,254,88.0,-999.0,-999,-99.99,,,-99.99,,2013-06-05 01:00:00,
2013-06-04 19:42:00,42.0,-99.9,-100.00,WSW,254,88.0,-999.0,-999,-99.99,,,-99.99,,2013-06-05 01:42:00,
2013-06-04 19:52:00,42.0,-99.9,-100.00,WSW,254,88.0,-999.0,-999,-99.99,,,-99.99,,2013-06-05 01:52:00,
2013-06-04 20:00:00,38.0,-99.9,-100.00,North,-999,-999.0,-999.0,-999,-99.99,,,-99.99,,2013-06-05 02:00:00,
2013-06-04 20:52:00,38.0,-99.9,-100.00,North,-999,-999.0,-999.0,-999,-99.99,,,-99.99,,2013-06-05 02:52:00,
2013-06-04 21:00:00,36.0,-99.9,-100.00,WNW,291,102.0,-999.0,-999,-99.99,,,-99.99,,2013-06-05 03:00:00,
2013-06-04 21:53:00,36.0,-99.9,-100.00,WNW,291,102.0,-999.0,-999,-99.99,,,-99.99,,2013-06-05 03:53:00,
2013-06-04 22:00:00,35.0,-99.9,-100.00,NW,315,106.0,-999.0,-999,-99.99,,,-99.99,,2013-06-05 04:00:00,
2013-06-04 22:53:00,35.0,-99.9,-100.00,NW,315,106.0,-999.0,-999,-99.99,,,-99.99,,2013-06-05 04:53:00,